This demonstration page uses our WeatherBlox Daily Observations layout. Learn more.

40.92945, -100.16068

Hourly Observations for September 11, 2018

Temp ( °F °C ) Dew Point ( °F °C ) Humidity (%) Winds ( mph kmh ) Pressure ( in mb ) Visibility ( mi km ) Precip ( " mm )
12:15 am 00:15 Clear 65 18.4 58 14.7 79 79 SSE 12 19 29.91 1013 10 16.0934 0 0
12:35 am 00:35 Clear 64 18 59 15 83 83 SSE 13 20 29.91 1013 10 16.0934 0 0
12:55 am 00:55 Clear 64 17.7 59 15 84 84 SSE 12 19 29.91 1013 10 16.0934 0 0
1:15 am 01:15 Clear 64 17.6 59 15 85 85 SSE 12 19 29.91 1013 10 16.0934 0 0
1:35 am 01:35 Clear 63 17.4 59 15 86 86 SSE 8 13 29.91 1013 10 16.0934 0 0
1:55 am 01:55 Clear 63 17.3 59 15 86 86 SSE 10 17 29.91 1013 10 16.0934 0 0
2:15 am 02:15 Clear 63 17.2 59 15 87 87 SSE 12 19 29.91 1013 10 16.0934 0 0
2:35 am 02:35 Clear 63 17 59 14.8 87 87 SSE 9 15 29.91 1013 10 16.0934 0 0
2:55 am 02:55 Clear 62 16.9 58 14.7 87 87 SSE 9 15 29.91 1013 10 16.0934 0 0
3:15 am 03:15 Clear 62 16.7 59 14.8 89 89 SSE 9 15 29.91 1013 10 16.0934 0 0
3:35 am 03:35 Clear 62 16.5 59 14.8 90 90 SSE 9 15 29.91 1013 10 16.0934 0 0
3:55 am 03:55 Clear 61 16.2 58 14.6 90 90 SSE 9 15 29.88 1012 10 16.0934 0 0
4:15 am 04:15 Clear 61 16 58 14.6 91 91 SSE 9 15 29.88 1012 10 16.0934 0 0
4:35 am 04:35 Partly Cloudy 61 16 58 14.5 91 91 SSE 9 15 29.88 1012 10 16.0934 0 0
4:55 am 04:55 Partly Cloudy 60 15.8 58 14.5 92 92 SSE 8 13 29.91 1013 10 16.0934 0 0
5:15 am 05:15 Mostly Cloudy 60 15.6 58 14.5 93 93 SSE 9 15 29.91 1013 10 16.0934 0 0
5:35 am 05:35 Cloudy 60 15.6 58 14.5 93 93 SSE 9 15 29.91 1013 7 11.26538 0 0
5:55 am 05:55 Cloudy 60 15.7 58 14.5 93 93 SSE 9 15 29.91 1013 7 11.26538 0 0
6:15 am 06:15 Cloudy 60 15.6 58 14.3 92 92 SSE 10 17 29.91 1013 7 11.26538 0 0
6:35 am 06:35 Cloudy 60 15.5 58 14.2 92 92 SSE 9 15 29.91 1013 7 11.26538 0 0
6:55 am 06:55 Cloudy 60 15.3 57 14.1 93 93 SSE 9 15 29.91 1013 7 11.26538 0 0
7:15 am 07:15 Cloudy with Mist and Fog 60 15.5 58 14.2 92 92 SSE 10 17 29.91 1013 5 8.0467 0 0
7:35 am 07:35 Cloudy with Mist and Fog 60 15.5 58 14.3 93 93 SSE 10 17 29.91 1013 5 8.0467 0 0
7:55 am 07:55 Cloudy with Mist and Fog 60 15.7 58 14.5 93 93 SSE 10 17 29.91 1013 5 8.0467 0 0
8:15 am 08:15 Cloudy with Mist and Fog 61 16 58 14.6 91 91 SSE 10 17 29.88 1012 5 8.0467 0 0
8:35 am 08:35 Cloudy 62 16.4 58 14.6 89 89 SSE 12 19 29.88 1012 7 11.26538 0 0
8:55 am 08:55 Cloudy 63 17.1 59 14.8 86 86 SSE 13 20 29.88 1012 10 16.0934 0 0
9:15 am 09:15 Mostly Cloudy 64 17.8 59 15.2 85 85 S 12 19 29.88 1012 10 16.0934 0 0
9:35 am 09:35 Mostly Cloudy 65 18.6 60 15.5 82 82 S 10 17 29.88 1012 10 16.0934 0 0
9:55 am 09:55 Partly Cloudy 67 19.5 60 15.8 79 79 S 13 20 29.85 1011 10 16.0934 0 0
10:15 am 10:15 Sunny 69 20.3 61 16 76 76 S 13 20 29.85 1011 10 16.0934 0 0
10:35 am 10:35 Sunny 70 21 61 16.3 75 75 S 15 24 29.85 1011 10 16.0934 0 0
10:55 am 10:55 Sunny 71 21.8 62 16.6 72 72 S 16 26 29.85 1011 10 16.0934 0 0
11:15 am 11:15 Sunny 73 22.7 62 16.7 69 69 S 15 24 29.85 1011 10 16.0934 0 0
11:35 am 11:35 Sunny 74 23.2 63 17 68 68 S 20 31 29.83 1010 10 16.0934 0 0
11:55 am 11:55 Sunny 75 24 63 17.1 65 65 S 14 22 29.8 1009 10 16.0934 0 0
12:15 pm 12:15 Sunny 77 25 64 17.5 63 63 S 17 28 29.8 1009 10 16.0934 0 0
12:35 pm 12:35 Sunny 78 25.7 65 18.1 63 63 SSE 18 30 29.8 1009 10 16.0934 0 0
12:55 pm 12:55 Sunny 79 26.2 64 17.7 60 60 S 20 31 29.77 1008 10 16.0934 0 0
1:15 pm 13:15 Sunny 81 27 65 18.3 59 59 S 22 35 29.77 1008 10 16.0934 0 0
1:35 pm 13:35 Sunny 82 27.6 65 18.3 57 57 S 22 35 29.77 1008 10 16.0934 0 0
1:55 pm 13:55 Sunny 83 28.2 65 18.2 55 55 S 23 37 29.77 1008 10 16.0934 0 0
2:15 pm 14:15 Sunny 84 28.7 65 18.5 54 54 SSE 20 31 29.77 1008 10 16.0934 0 0
2:35 pm 14:35 Sunny 84 28.8 65 18.4 53 53 S 25 41 29.74 1007 10 16.0934 0 0
2:55 pm 14:55 Sunny 85 29.5 65 18.6 52 52 S 23 37 29.71 1006 10 16.0934 0 0
3:15 pm 15:15 Sunny 85 29.5 65 18.6 52 52 SSE 23 37 29.71 1006 10 16.0934 0 0
3:35 pm 15:35 Sunny 85 29.5 65 18.5 52 52 SSE 24 39 29.71 1006 10 16.0934 0 0
3:55 pm 15:55 Sunny 85 29.5 66 18.9 53 53 S 21 33 29.71 1006 10 16.0934 0 0
4:15 pm 16:15 Sunny 85 29.5 66 18.8 53 53 S 25 41 29.71 1006 10 16.0934 0 0
4:35 pm 16:35 Sunny 85 29.3 65 18.5 52 52 S 26 43 29.71 1006 10 16.0934 0 0
4:55 pm 16:55 Sunny 85 29.4 65 18.6 52 52 S 24 39 29.71 1006 10 16.0934 0 0
5:15 pm 17:15 Sunny 85 29.2 65 18.4 52 52 S 21 33 29.74 1007 10 16.0934 0 0
5:35 pm 17:35 Sunny 84 29 66 18.8 54 54 S 23 37 29.74 1007 10 16.0934 0 0
5:55 pm 17:55 Sunny 84 28.7 66 18.8 55 55 SSE 21 33 29.71 1006 10 16.0934 0 0
6:15 pm 18:15 Sunny 83 28.3 66 18.7 56 56 SSE 22 35 29.71 1006 10 16.0934 0 0
6:35 pm 18:35 Sunny 82 27.9 66 18.7 57 57 SSE 18 30 29.71 1006 10 16.0934 0 0
6:55 pm 18:55 Sunny 81 27.2 66 18.7 60 60 SSE 16 26 29.71 1006 10 16.0934 0 0
7:15 pm 19:15 Sunny 80 26.5 65 18.5 62 62 SSE 16 26 29.74 1007 10 16.0934 0 0
7:35 pm 19:35 Sunny 78 25.5 65 18.5 65 65 SSE 13 20 29.77 1008 10 16.0934 0 0
7:55 pm 19:55 Sunny 76 24.7 65 18.5 69 69 SSE 13 20 29.77 1008 10 16.0934 0 0
8:15 pm 20:15 Clear 75 24.1 65 18.5 71 71 SSE 12 19 29.8 1009 10 16.0934 0 0
8:35 pm 20:35 Clear 74 23.4 65 18.5 74 74 SE 10 17 29.8 1009 10 16.0934 0 0
8:55 pm 20:55 Clear 73 23 65 18.3 75 75 SSE 13 20 29.8 1009 10 16.0934 0 0
9:15 pm 21:15 Clear 72 22.2 64 18 77 77 SSE 12 19 29.83 1010 10 16.0934 0 0
9:35 pm 21:35 Clear 72 22.1 64 17.7 76 76 SSE 14 22 29.83 1010 10 16.0934 0 0
9:55 pm 21:55 Clear 71 21.5 63 17.2 77 77 SSE 13 20 29.85 1011 10 16.0934 0 0
10:15 pm 22:15 Clear 70 21.2 62 16.7 76 76 SSE 14 22 29.85 1011 10 16.0934 0 0
10:35 pm 22:35 Clear 70 21.1 61 16.3 74 74 SSE 14 22 29.85 1011 10 16.0934 0 0
10:55 pm 22:55 Clear 69 20.8 61 16 74 74 SSE 13 20 29.85 1011 10 16.0934 0 0
11:15 pm 23:15 Clear 69 20.6 60 15.6 73 73 SSE 14 22 29.85 1011 10 16.0934 0 0
11:35 pm 23:35 Clear 69 20.5 60 15.3 72 72 SSE 13 20 29.88 1012 10 16.0934 0 0
11:55 pm 23:55 Clear 68 20.1 59 15.2 74 74 SSE 13 20 29.88 1012 10 16.0934 0 0

Powered by AerisWeather